Location: Grand Rapids
(42.9630°N, 85.6680°W)
Time: 01:58:21
(UTC-04:00)

SR - Visible Passes

Search period start: 30 May 2024 00:00
Search period end: 09 June 2024 00:00
Orbit: 579 x 859 km, 66.7° (Epoch: 29 May)

Date Brightness Start Highest point End Pass type
(mag) Time Alt. Az. Time Alt. Az. Time Alt. Az.
30 May ? 01:43:06 10° NNW 01:47:05 35° NE 01:47:55 32° ENE visible
30 May ? 03:25:21 10° WNW 03:27:07 18° W 03:27:07 18° W visible
31 May ? 00:51:28 10° N 00:54:28 18° NE 00:56:30 14° ENE visible
31 May ? 02:32:28 10° NW 02:35:42 43° WNW 02:35:42 43° WNW visible
01 Jun ? 01:40:09 10° NNW 01:44:20 63° NE 01:44:20 63° NE visible
02 Jun ? 00:48:12 10° NNW 00:51:57 29° NE 00:53:02 25° ENE visible
02 Jun ? 02:30:02 10° NW 02:32:13 23° WNW 02:32:13 23° WNW visible
02 Jun ? 23:56:44 10° N 23:59:17 15° NE 00:01:45 10° ENE visible
03 Jun ? 01:37:22 10° NW 01:40:57 58° WNW 01:40:57 58° WNW visible
04 Jun ? 00:45:09 10° NNW 00:49:18 49° NE 00:49:44 47° ENE visible
04 Jun ? 02:28:06 10° WNW 02:28:56 13° W 02:28:56 13° W visible
04 Jun ? 23:53:19 10° N 23:56:48 23° NE 23:58:33 18° E visible
05 Jun ? 01:34:47 10° NW 01:37:44 32° W 01:37:44 32° W visible
05 Jun ? 23:02:08 10° NNE 23:04:03 13° NE 23:05:56 10° ENE visible
06 Jun ? 00:42:16 10° NNW 00:46:33 89° ENE 00:46:36 87° ESE visible
06 Jun ? 23:50:10 10° NNW 23:54:10 38° NE 23:55:29 30° E visible
07 Jun ? 01:32:33 10° WNW 01:34:42 19° W 01:34:42 19° W visible
07 Jun ? 22:58:27 10° N 23:01:35 19° NE 23:04:24 11° E visible
08 Jun ? 00:39:34 10° NW 00:43:36 49° WSW 00:43:36 49° WSW visible
08 Jun ? 22:07:54 10° NNE 22:08:45 10° NE 22:09:36 10° NE visible
08 Jun ? 23:47:12 10° NNW 23:51:27 69° ENE 23:52:33 46° SE visible
